This is the latest recevied weather packets stored in our database for station/object KB1YYC. If no packets are shown the sender has not sent any weather packets the latest 10 day(s).
| Time | Temp. | Humidity | Pressure | Rain* | Wind** | Luminosity | Snow |
|---|---|---|---|---|---|---|---|
| 1777917261 | 19.44° C | 35% | 1005.9 hPa | 0 mm | - | 395 W/m² | - |
| 1777916959 | 18.89° C | 36% | 1005.8 hPa | 0 mm | - | 390 W/m² | - |
| 1777916656 | 18.89° C | 36% | 1006 hPa | 0 mm | - | 217 W/m² | - |
| 1777916353 | 18.89° C | 35% | 1005.9 hPa | 0 mm | - | 197 W/m² | - |
| 1777916049 | 19.44° C | 35% | 1005.9 hPa | 0 mm | - | 191 W/m² | - |
| 1777915747 | 19.44° C | 35% | 1005.9 hPa | 0 mm | - | 290 W/m² | - |
| 1777915443 | 19.44° C | 34% | 1005.8 hPa | 0 mm | - | 293 W/m² | - |
| 1777915140 | 20° C | 34% | 1005.9 hPa | 0 mm | - | 382 W/m² | - |
| 1777914837 | 18.89° C | 35% | 1005.6 hPa | 0 mm | - | 936 W/m² | - |
| 1777914534 | 18.89° C | 34% | 1005.8 hPa | 0 mm | - | 204 W/m² | - |
| 1777914230 | 19.44° C | 34% | 1005.7 hPa | 0 mm | - | 222 W/m² | - |
| 1777913927 | 19.44° C | 36% | 1005.6 hPa | 0 mm | - | 572 W/m² | - |
| 1777913623 | 19.44° C | 35% | 1005.7 hPa | 0 mm | - | 158 W/m² | - |
| 1777913320 | 19.44° C | 35% | 1005.7 hPa | 0 mm | - | 259 W/m² | - |
| 1777913017 | 18.89° C | 34% | 1005.8 hPa | 0 mm | - | 874 W/m² | - |
| 1777912713 | 18.33° C | 35% | 1005.8 hPa | 0 mm | - | 385 W/m² | - |
| 1777912409 | 18.89° C | 35% | 1005.7 hPa | 0 mm | - | 212 W/m² | - |
| 1777912105 | 19.44° C | 35% | 1005.8 hPa | 0 mm | - | 308 W/m² | - |
| 1777911801 | 18.89° C | 36% | 1005.7 hPa | 0 mm | - | 319 W/m² | - |
| 1777911498 | 19.44° C | 35% | 1005.8 hPa | 0 mm | - | 223 W/m² | - |
| 1777911195 | 20° C | 34% | 1005.6 hPa | 0 mm | - | 618 W/m² | - |
| 1777910892 | 20.56° C | 34% | 1005.7 hPa | 0 mm | - | 768 W/m² | - |
| 1777910589 | 20° C | 36% | 1005.7 hPa | 0 mm | - | 778 W/m² | - |
| 1777910286 | 19.44° C | 37% | 1005.8 hPa | 0 mm | - | 802 W/m² | - |
| 1777909983 | 19.44° C | 35% | 1006 hPa | 0 mm | - | 774 W/m² | - |
* Rain latest hour (hover to see other rain measurements)
** Current wind speed in m/s (hover to see current wind gust speed)